TERRASAR-X

Last updated on Sun Apr 12 2026 00:02:34 GMT+0000 (Coordinated Universal Time)

1 31698U 07026A 26100.47913692 .00000803 00000+0 41432-4 0 9990 2 31698 97.4463 109.1520 0002047 87.5934 272.5535 15.19150973 42948
UTC large
Height (km)
Speed (km/s)
/
Latitude / Longitude
Inclination (degrees)
Orbital Period (minutes)
Azimuth
Elevation
Range (km)
Doppler Factor

Next 0 passes for location: London (51.5072 / 0.1276)

Sorry there are no passes over London.
TERRASAR-X